This demonstration page uses our WeatherBlox Daily Observations layout. Learn more.

Hourly Observations for September 26, 2016

Temp ( °F °C ) Dew Point ( °F °C ) Humidity (%) Winds ( mph kmh ) Pressure ( in mb ) Visibility ( mi km ) Precip ( " mm )
12:15 am 00:15 Clear 44 6.8 32 -0.2 61 61 WNW 5 7 30.36 1028 10 16.09344 0 0
12:35 am 00:35 Clear 43 6 32 -0.1 65 65 WNW 3 6 30.36 1028 10 16.09344 0 0
12:55 am 00:55 Clear 43 6.1 31 -0.3 64 64 WNW 5 7 30.36 1028 10 16.09344 0 0
1:15 am 01:15 Clear 45 7.2 30 -1 56 56 W 6 9 30.36 1028 10 16.09344 0 0
1:35 am 01:35 Clear 43 6.1 32 0 65 65 WSW 3 6 30.36 1028 10 16.09344 0 0
1:55 am 01:55 Clear 42 5.4 32 0 68 68 W 3 6 30.39 1029 10 16.09344 0 0
2:15 am 02:15 Clear 43 6 32 0 66 66 W 3 6 30.36 1028 10 16.09344 0 0
2:35 am 02:35 Clear 44 6.5 31 -0.6 61 61 WNW 3 6 30.36 1028 10 16.09344 0 0
2:55 am 02:55 Clear 42 5.7 31 -0.3 66 66 WNW 6 9 30.36 1028 10 16.09344 0 0
3:15 am 03:15 Clear 43 6.3 31 -0.5 62 62 WNW 7 11 30.36 1028 10 16.09344 0 0
3:35 am 03:35 Clear 41 5.2 32 -0.1 69 69 WNW 3 6 30.39 1029 10 16.09344 0 0
3:55 am 03:55 Clear 42 5.8 32 0 67 67 WNW 6 9 30.36 1028 10 16.09344 0 0
4:15 am 04:15 Clear 42 5.8 32 0 67 67 WNW 6 9 30.36 1028 10 16.09344 0 0
4:35 am 04:35 Clear 42 5.8 32 0.1 67 67 WNW 7 11 30.36 1028 10 16.09344 0 0
4:55 am 04:55 Clear 41 5 32 0 70 70 W 5 7 30.39 1029 10 16.09344 0 0
5:15 am 05:15 Clear 41 5.2 32 0 69 69 W 6 9 30.39 1029 10 16.09344 0 0
5:35 am 05:35 Clear 42 5.7 32 0.1 68 68 W 6 9 30.36 1028 10 16.09344 0 0
5:55 am 05:55 Clear 42 5.5 32 0.1 69 69 W 7 11 30.39 1029 10 16.09344 0 0
6:15 am 06:15 Clear 42 5.7 32 0 67 67 WNW 6 9 30.36 1028 10 16.09344 0 0
6:35 am 06:35 Clear 42 5.7 32 0 67 67 WNW 7 11 30.36 1028 10 16.09344 0 0
6:55 am 06:55 Clear 41 5.1 32 0 70 70 WNW 6 9 30.39 1029 10 16.09344 0 0
7:15 am 07:15 Clear 40 4.5 32 0.1 73 73 WNW 3 6 30.39 1029 10 16.09344 0 0
7:35 am 07:35 Sunny 40 4.7 32 0.1 72 72 WNW 6 9 30.39 1029 10 16.09344 0 0
7:55 am 07:55 Sunny 41 4.8 33 0.5 74 74 WNW 3 6 30.39 1029 10 16.09344 0 0
8:15 am 08:15 Sunny 42 5.3 34 1.2 75 75 Calm 30.39 1029 10 16.09344 0 0
8:35 am 08:35 Sunny 45 7.3 35 1.5 67 67 WNW 3 6 30.36 1028 10 16.09344 0 0
8:55 am 08:55 Sunny 48 8.9 35 1.9 62 62 W 5 7 30.33 1027 10 16.09344 0 0
9:15 am 09:15 Sunny 51 10.8 36 2.4 56 56 Calm 30.33 1027 10 16.09344 0 0
9:35 am 09:35 Sunny 56 13.1 35 1.8 46 46 W 7 11 30.3 1026 10 16.09344 0 0
9:55 am 09:55 Sunny 59 15 34 1.3 40 40 W 7 11 30.3 1026 10 16.09344 0 0
10:15 am 10:15 Sunny 62 16.5 33 0.6 34 34 W 7 11 30.27 1025 10 16.09344 0 0
10:35 am 10:35 Sunny 64 17.5 32 -0.1 31 31 WSW 10 17 30.27 1025 10 16.09344 0 0
10:55 am 10:55 Sunny 64 18 31 -0.5 29 29 WSW 10 17 30.27 1025 10 16.09344 0 0
11:15 am 11:15 Sunny 64 18 30 -1.3 27 27 W 12 19 30.27 1025 10 16.09344 0 0
11:35 am 11:35 Sunny 66 18.7 29 -1.5 26 26 W 15 24 30.21 1023 10 16.09344 0 0
11:55 am 11:55 Sunny 67 19.2 28 -2.2 24 24 WSW 15 24 30.21 1023 10 16.09344 0 0
12:15 pm 12:15 Sunny 68 19.9 27 -2.8 22 22 WSW 14 22 30.21 1023 10 16.09344 0 0
12:35 pm 12:35 Sunny 70 21 27 -2.6 20 20 WSW 14 22 30.18 1022 10 16.09344 0 0
12:55 pm 12:55 Sunny 71 21.7 27 -2.8 19 19 W 16 26 30.18 1022 10 16.09344 0 0
1:15 pm 13:15 Sunny 73 22.5 29 -1.9 20 20 W 14 22 30.15 1021 10 16.09344 0 0
1:35 pm 13:35 Sunny 73 22.6 29 -1.6 20 20 W 13 20 30.12 1020 10 16.09344 0 0
1:55 pm 13:55 Sunny 73 22.9 31 -0.6 21 21 W 10 17 30.12 1020 10 16.09344 0 0
2:15 pm 14:15 Sunny 75 23.8 32 0 21 21 W 12 19 30.12 1020 10 16.09344 0 0
2:35 pm 14:35 Sunny 75 23.7 32 0 21 21 WNW 12 19 30.09 1019 10 16.09344 0 0
2:55 pm 14:55 Sunny 75 24 33 0.4 21 21 WNW 9 15 30.09 1019 10 16.09344 0 0
3:15 pm 15:15 Sunny 76 24.4 33 0.6 21 21 W 16 26 30.09 1019 10 16.09344 0 0
3:35 pm 15:35 Sunny 76 24.5 33 0.7 21 21 WNW 13 20 30.06 1018 10 16.09344 0 0
3:55 pm 15:55 Sunny 76 24.5 33 0.6 21 21 NNW 8 13 30.06 1018 10 16.09344 0 0
4:15 pm 16:15 Sunny 77 25.1 34 1.2 21 21 W 13 20 30.03 1017 10 16.09344 0 0
4:55 pm 16:55 Sunny 77 25 34 1 21 21 NW 9 15 30 1016 10 16.09344 0 0
5:15 pm 17:15 Sunny 77 25.1 35 1.4 21 21 NW 7 11 30 1016 10 16.09344 0 0
5:35 pm 17:35 Sunny 77 24.8 35 1.7 22 22 NW 9 15 30 1016 10 16.09344 0 0
6:15 pm 18:15 Sunny 76 24.4 36 2.2 23 23 W 7 11 30 1016 10 16.09344 0 0
6:35 pm 18:35 Sunny 75 23.8 37 2.7 25 25 W 5 7 30.03 1017 10 16.09344 0 0
6:55 pm 18:55 Sunny 74 23.3 38 3.1 27 27 Calm 30.03 1017 10 16.09344 0 0
7:15 pm 19:15 Sunny 71 21.6 38 3.6 31 31 NNW 3 6 30.03 1017 10 16.09344 0 0
7:35 pm 19:35 Clear 68 20 39 3.9 35 35 N 3 6 30.06 1018 10 16.09344 0 0
7:55 pm 19:55 Clear 62 16.8 43 6 49 49 Calm 30.09 1019 10 16.09344 0 0
8:15 pm 20:15 Clear 61 16.2 42 5.6 50 50 N 3 6 30.09 1019 10 16.09344 0 0
8:35 pm 20:35 Clear 60 15.4 42 5.8 53 53 Calm 30.09 1019 10 16.09344 0 0
8:55 pm 20:55 Clear 59 14.9 43 5.9 55 55 Calm 30.09 1019 10 16.09344 0 0
9:15 pm 21:15 Clear 56 13.6 43 6.1 61 61 Calm 30.12 1020 10 16.09344 0 0
9:35 pm 21:35 Clear 55 12.7 44 6.8 68 68 Calm 30.12 1020 10 16.09344 0 0
9:55 pm 21:55 Clear 54 12 44 6.8 71 71 Calm 30.12 1020 10 16.09344 0 0
10:15 pm 22:15 Clear 53 11.7 45 7 73 73 Calm 30.12 1020 10 16.09344 0 0
10:35 pm 22:35 Clear 54 12.3 44 6.5 68 68 Calm 30.12 1020 7 11.265408 0 0
10:55 pm 22:55 Clear 51 10.8 44 6.7 76 76 Calm 30.12 1020 7 11.265408 0 0
11:15 pm 23:15 Clear 51 10.6 44 6.8 78 78 Calm 30.12 1020 10 16.09344 0 0
11:35 pm 23:35 Clear 51 10.3 44 6.7 79 79 Calm 30.15 1021 10 16.09344 0 0
11:55 pm 23:55 Clear 49 9.5 43 6.1 80 80 Calm 30.15 1021 10 16.09344 0 0

Powered by AerisWeather